www.pogodaiklimat.ru

Погода и климат >> Архив погоды >> Индия >> Орисса >> Пури


ПОГОДА в Пури

  • Прогноз погоды в Пури
  • Монитор погоды в Пури

АРХИВ ПОГОДЫ в Пури

Время (UTC), дата Ветер
(напр.,м/с)
 
Видим.   Явления Облачность Т
(С)
Тd
(С)
f
(%)
Тe
(С)
Тes
(С)
Комфортность P
(гПа)
Po
(гПа)
Тmin
(С)
Tmax
(С)
R
(мм)
R24
(мм)
S
(см)
09 14.04 ЮЗ 2 4000 м 3/3 600 м
[Sc]
1007.2 1006.5
12 14.04 ЮЗ 2 4000 м 6/4 600 м
[Sc Ac trans]
1006.5 1005.8 +32.8
15 14.04 ЮЗ 6 4000 м 5/5 600 м
[St]
+29.2 +27.0 88 +46 +46 опасность
перегрева
1008.7 1008.0
18 14.04 ЮЗ 6 4000 м 4/4 600 м
[St]
+28.4 +26.4 89 +43 +43 опасность
перегрева
1007.9 1007.2
21 14.04 ЮЗ 5 4000 м 5/5 600 м
[St]
+28.0 +26.0 89 +42 +42 опасность
перегрева
1006.7 1006.0
00 15.04 ЮЗ 5 4000 м 8/5 300 м
[St Ac trans Ci fib]
+28.2 +26.2 89 +43 +43 опасность
перегрева
1007.2 1006.5
03 15.04 ЮЗ 3 4000 м 9/5 600 м
[St Ac trans Ci fib]
1009.7 1009.0 +27.2
06 15.04 ЮЗ 3 4000 м 8/5 600 м
[St Ac trans]
1009.7 1009.0
09 15.04 ЮЗ 3 4000 м 5/4 600 м
[Sc Ac trans]
1006.6 1005.9
12 15.04 ЮЗ 2 4000 м 6/4 600 м
[Sc Ac trans]
1006.0 1005.3 +33.2
15 15.04 Ю 4 4000 м 4/4 600 м
[Sc]
+29.8 +26.5 83 +46 +46 опасность
перегрева
1007.7 1007.0
18 15.04 Ю 3 4000 м 4/4 600 м
[Sc]
+29.2 +26.4 85 +45 +45 опасность
перегрева
1008.0 1007.3
21 15.04 ЮЗ 2 4000 м 5/5 600 м
[Sc]
+28.6 +26.4 88 +44 +44 опасность
перегрева
1006.9 1006.2
00 16.04 4000 м н/о +28.2 +26.5 91 +44 +44 опасность
перегрева
1007.4 1006.7
03 16.04 ЮЗ 2 4000 м 4/4 600 м
[Sc]
1009.4 1008.7 +27.0
06 16.04 ЮЗ 2 4000 м 3/3 600 м
[Sc]
1008.9 1008.2
09 16.04 ЮЗ 3 4000 м ясно 1006.5 1005.8
12 16.04 ЮЗ 3 4000 м ясно 1006.1 1005.4 +33.6
15 16.04 ЮЗ 3 4000 м ясно +29.6 +26.2 82 +45 +45 опасность
перегрева
1008.7 1008.0
18 16.04 ЮЗ 3 4000 м ясно +28.6 +26.4 88 +44 +44 опасность
перегрева
1008.4 1007.7
21 16.04 ЮЗ 4 4000 м ясно +28.0 +25.4 86 +41 +41 опасность
перегрева
1006.9 1006.2
00 17.04 ЮЗ 1 4000 м ясно +27.2 +25.8 92 +40 +40 очень
душно
1008.0 1007.3
03 17.04 ЮЗ 3 4000 м 3/3 600 м
[Sc]
1011.5 1010.8 +26.2
06 17.04 ЮЗ 3 4000 м ясно 1010.9 1010.2
09 17.04 ЮЗ 3 4000 м ясно 1008.4 1007.7
12 17.04 Ю 3 4000 м ясно 1007.7 1007.0 +33.4
15 17.04 штиль 0 4000 м ясно +29.2 +25.4 80 +43 +43 опасность
перегрева
1010.2 1009.5
18 17.04 штиль 0 4000 м ясно +28.6 +26.4 88 +44 +44 опасность
перегрева
1011.0 1010.3
21 17.04 штиль 0 4000 м 4/4 600 м
[St]
+27.6 +25.6 89 +41 +41 опасность
перегрева
1009.4 1008.7
00 18.04 штиль 0 4000 м 3/3 600 м
[Sc]
+27.0 +25.3 90 +39 +39 очень
душно
1009.5 1008.8
03 18.04 Ю 1 4000 м ясно 1011.9 1011.2 +25.2
06 18.04 Ю 2 4000 м ясно 1011.7 1011.0
09 18.04 ЮЗ 1 4000 м ясно 1008.8 1008.1
12 18.04 Ю 3 4000 м ясно 1008.0 1007.3 +33.4
15 18.04 ЮЗ 4 4000 м ясно +28.8 +25.7 83 +43 +43 опасность
перегрева
1010.2 1009.5
18 18.04 ЮЗ 3 4000 м 4/4 600 м
[Sc]
+28.4 +25.3 83 +41 +41 опасность
перегрева
1010.6 1009.9
21 18.04 ЮЗ 2 4000 м 5/5 600 м
[Sc]
+28.2 +25.1 83 +41 +41 опасность
перегрева
1007.7 1007.0
00 19.04 штиль 0 4000 м 9/5 600 м
[St Ac trans Ci fib]
+28.0 +25.2 85 +41 +41 опасность
перегрева
1008.7 1008.0
03 19.04 штиль 0 4000 м 5/3 600 м
[Sc Ac trans Ci fib]
1012.2 1011.5 +25.6
06 19.04 С 1 4000 м 6/3 600 м
[Sc Ac trans Ci fib]
1010.7 1010.0
09 19.04 Ю 2 4000 м 4/3 600 м
[Sc Ac trans]
1007.9 1007.2
12 19.04 Ю 2 4000 м 4/3 600 м
[Sc Ac trans]
1007.0 1006.3 +35.3
15 19.04 ЮЗ 1 4000 м 8/5 600 м
[Sc Ac trans]
+29.6 +25.7 80 +44 +44 опасность
перегрева
1008.6 1007.9
18 19.04 ЮЗ 1 4000 м 6/4 600 м
[Sc Ac trans]
+28.8 +25.7 83 +43 +43 опасность
перегрева
1008.3 1007.6
21 19.04 штиль 0 4000 м 8/5 600 м
[Sc Ac trans]
+28.2 +25.4 85 +41 +41 опасность
перегрева
1008.9 1008.2
00 20.04 штиль 0 4000 м {гроза, дождь} 10/8 600 м
[St Ac As]
+24.4 +20.7 80 +30 +30 очень
душно
1007.0 1006.3 1
03 20.04 штиль 0 4000 м 9/6 600 м
[St Ac trans]
1010.5 1009.8 +22.2 1
06 20.04 Ю 1 4000 м ясно 1009.4 1008.7
09 20.04 Ю 2 4000 м ясно 1006.4 1005.7
12 20.04 Ю 3 4000 м 4/1 600 м
[Sc Ci fib]
1005.0 1004.3 +31.2
15 20.04 ЮЗ 4 4000 м 3/3 600 м
[Sc]
+29.4 +25.7 81 +44 +44 опасность
перегрева
1006.7 1006.0
18 20.04 ЮЗ 4 4000 м 3/3 600 м
[Sc]
+29.0 +26.2 85 +44 +44 опасность
перегрева
1006.4 1005.7
21 20.04 ЮЗ 3 4000 м 5/5 600 м
[Sc]
+28.6 +26.1 86 +43 +43 опасность
перегрева
1004.6 1003.9
00 21.04 ЮЗ 3 4000 м 6/4 600 м
[St Ac trans]
+28.4 +26.2 88 +43 +43 опасность
перегрева
1005.5 1004.8
03 21.04 Ю 4 4000 м 5/4 600 м
[Sc diur, vesp Ac trans]
1008.2 1007.5 +27.2

 

Местоположение метеостанции Пури (Орисса, Индия): широта 19.80 долгота 85.82 высота над уровнем моря 6 м.

В архиве по умолчанию представлена погода в Пури за последнюю неделю. Архивные данные за месяц целиком и за предыдущие месяцы, начиная с января 2011 года, Вы можете получить, выбрав интересующий диапазон дат из раскрывающегося списка и нажав кнопку "Ввод!".


*Определитесь, кто Вы:
робот инопланетянин человек

Внимание! Время в таблицах - всемирное. Для получения местного времени необходимо прибавить поправку, которая равна 5.5 ч.

Смотрите также архив погоды в соседних городах и на ближайших метеорологических станциях:

Погода в Бхубанешваре (Орисса, Индия) (50 км)
Погода в Каттаке (Орисса, Индия) (75 км)
Погода в Парадипе (Орисса, Индия) (106 км)
Погода в Гопалпере (Орисса, Индия) (115 км)
Погода в Ангуле (Орисса, Индия) (137 км)
Погода в Чандбали (Орисса, Индия) (145 км)
Погода в Пхулбани (Орисса, Индия) (179 км)
Погода в Кендуджхаре (Орисса, Индия) (205 км)
Погода в Баласоре (Орисса, Индия) (223 км)
Погода в Калингапатнаме (Андхра-Прадеш, Индия) (241 км)

Пояснения к столбцам:

Ветер - указаны скорость ветра в м/с - средняя за 10 мин, порывы в срок и между сроками (в фигурных скобках) и направление, откуда дует ветер: С - северный, СВ - северо-восточный, В - восточный, ЮВ - юго-восточный, Ю - южный, ЮЗ - юго-западный, З - западный, СЗ - северо-западный.
Видимость - горизонтальная дальность видимости в метрах или километрах. При видимости от 1 до 10 км при отсутствии осадков обычно наблюдается дымка, при ухудшении видимости до 1 км и менее - туман. В сухую погоду видимость может ухудшаться дымом, пылью или мглою.
Явления - указаны атмосферные явления, наблюдавшиеся в срок или в последний час перед сроком; фигурными скобками обозначены явления, наблюдавшиеся между сроками (за 1-3 часа до срока); квадратными скобками обозначены град или гололедные отложения с указанием их диаметра в мм.
Облачность - указаны через наклонную черту общая и нижняя облачность в баллах и высота нижней границы облаков в метрах; квадратными скобками обозначены формы облаков: Ci - перистые, Cs - перисто-слоистые, Cc - перисто-кучевые, Ac - высококучевые, As - высокослоистые, Sc - слоисто-кучевые, Ns - слоисто-дождевые, Cu - кучевые, Cb - кучево-дождевые. Подробнее классификацию облаков см. в Атласе облаков (PDF).
T - Температура воздуха - температура, измеренная на высоте 2 м над землей.
Td - Температура точки росы - температура, при понижении до которой содержащийся в воздухе водяной пар достигнет насыщения.
f - Относительная влажность воздуха - влажноcть воздуха, измеренная на высоте 2 м над землей.
Te - Эффективная температура - температура, которую ощущает одетый по сезону человек в тени. Характеристика душности погоды. При расчете учитывается влияние влажности воздуха и скорости ветра на теплоощущения человека.
Tes - Эффективная температура на солнце - температура, которую ощущает человек, с поправкой на солнечный нагрев. Характеристика знойности погоды. Зависит от высоты солнца над горизонтом, облачности и скорости ветра. Ночью, в пасмурную погоду, а также при ветре 12 м/с и более поправка равна нулю.
P - Атмосферное давление - приведенное к уровню моря атмосферное давление.
Po - Атмосферное давление - измеренное на уровне метеостанции атмосферное давление.
Tmin - Минимальная температура - минимум температуры воздуха на высоте 2 м над землей.
Tmax - Максимальная температура - максимум температуры воздуха на высоте 2 м над землей.
R - Количество осадков - Количество выпавших осадков за период времени, мм. При наведении курсора мыши на число - период времени, за который выпало указанное количество осадков.
R24 - Количество осадков - Количество выпавших осадков за 24 часа, мм.
S - Снежный покров - Высота снежного покрова, см. При наведении курсора мыши на число - состояние снежного покрова и степень покрытия местности в баллах.